Location: Strawberry
(45.6646°N, 111.9596°W)
Time: 12:50:21
(UTC+00:00)

Transit 4A - Pass Details

Date: 03 October 2022
Orbit: 871 x 973 km, 66.8° (Epoch: 26 November)

Event Time Altitude Azimuth Distance (km) Brightness Sun altitude
Exits shadow 08:53:25 11° 347° (NNW) 2,505 10.5 -43.3°
Drops below altitude 10° 08:54:41 10° 360° (N) 2,578 10.7 -43.2°
Sets 08:59:27 0° 34° (NE) 3,497 11.7 -42.7°
